Location: Newark
(54.7500°N, 9.9000°E)
Time: 04:30:34
(UTC+00:00)

N. Korean satellite - Visible Passes

Search period start: 23 January 2020 00:00
Search period end: 02 February 2020 00:00
Orbit: 454 x 507 km, 97.2° (Epoch: 22 January)

Date Brightness Start Highest point End Pass type
(mag) Time Alt. Az. Time Alt. Az. Time Alt. Az.
23 Jan 7.7 04:59:41 10° NNE 05:03:06 44° E 05:06:33 10° S visible
23 Jan 7.8 06:33:35 10° NNW 06:36:17 21° WNW 06:39:00 10° WSW visible
23 Jan 9.7 17:16:26 10° SW 17:18:44 17° W 17:21:03 10° NW visible
24 Jan 8.9 04:34:28 10° NE 04:37:29 25° E 04:40:29 10° SSE visible
24 Jan 7.1 06:07:41 10° N 06:10:56 34° WNW 06:14:13 10° SW visible
24 Jan 8.7 16:50:00 10° SSW 16:53:02 29° W 16:56:06 10° NNW visible
25 Jan 9.8 04:09:41 10° NE 04:11:45 15° E 04:13:50 10° SE visible
25 Jan 6.5 05:41:59 10° N 05:45:31 63° WNW 05:49:04 10° SSW visible
25 Jan 7.3 16:24:02 10° S 16:27:24 55° WSW 16:30:49 10° NNW visible
26 Jan 6.8 05:16:27 10° NNE 05:20:01 69° ESE 05:23:37 10° S visible
26 Jan 10.0 17:34:32 10° WSW 17:35:47 12° W 17:37:01 10° WNW visible
27 Jan 8.1 04:51:06 10° NNE 04:54:26 37° E 04:57:49 10° SSE visible
27 Jan 7.6 06:24:46 10° N 06:27:42 25° WNW 06:30:42 10° WSW visible
27 Jan 9.5 17:07:23 10° SW 17:10:01 20° W 17:12:39 10° NW visible
28 Jan 9.2 04:25:58 10° NE 04:28:46 21° E 04:31:36 10° SE visible
28 Jan 6.9 05:58:57 10° N 06:02:20 42° WNW 06:05:47 10° SW visible
28 Jan 8.3 16:41:07 10° SSW 16:44:19 36° W 16:47:34 10° NNW visible
29 Jan 10.0 04:01:26 10° ENE 04:03:01 12° E 04:04:36 10° ESE visible
29 Jan 6.4 05:33:18 10° NNE 05:36:54 78° WNW 05:40:31 10° SSW visible
30 Jan 7.3 05:07:48 10° NNE 05:11:22 56° E 05:14:57 10° S visible
30 Jan 9.8 17:25:07 10° WSW 17:27:01 14° W 17:28:56 10° NW visible
31 Jan 8.5 04:42:30 10° NNE 04:45:45 31° E 04:49:02 10° SSE visible
31 Jan 7.4 06:15:57 10° N 06:19:08 29° WNW 06:22:19 10° SW visible
31 Jan 9.2 16:58:23 10° SSW 17:01:16 24° W 17:04:11 10° NW visible
01 Feb 9.5 04:17:29 10° NE 04:20:03 18° E 04:22:38 10° SE visible
01 Feb 6.7 05:50:12 10° N 05:53:43 51° WNW 05:57:17 10° SSW visible
01 Feb 7.9 16:32:17 10° S 16:35:36 44° W 16:38:59 10° NNW visible
